Location: Colebrook
(42.0017°N, 73.0973°W)
Time: 10:47:41
(UTC-04:00)

A-11 Canister half - All Passes

Search period start: 25 October 2021 00:00
Search period end: 04 November 2021 00:00
Orbit: 1525 x 1684 km, 47.3° (Epoch: 24 October)

Date Brightness Start Highest point End Pass type
(mag) Time Alt. Az. Time Alt. Az. Time Alt. Az.
25 Oct - 11:18:31 10° S 11:26:41 32° SE 11:34:38 10° ENE daylight
25 Oct - 13:21:18 10° WSW 13:30:52 84° SSE 13:40:12 10° ENE daylight
25 Oct - 15:27:00 10° W 15:36:21 64° N 15:45:36 10° ENE daylight
25 Oct - 17:32:46 10° WNW 17:42:08 78° NNE 17:51:30 10° ESE daylight
25 Oct - 19:38:01 10° WNW 19:46:48 49° SW 19:55:42 10° SSE visible
25 Oct - 21:46:57 10° WSW 21:50:03 12° WSW 21:53:12 10° SW visible
26 Oct - 10:57:04 10° S 11:05:04 31° SE 11:12:53 10° ENE daylight
26 Oct - 12:59:37 10° SW 13:09:11 82° SSE 13:18:33 10° ENE daylight
26 Oct - 15:05:17 10° W 15:14:39 65° N 15:23:53 10° ENE daylight
26 Oct - 17:11:05 10° WNW 17:20:27 77° NNE 17:29:48 10° ESE daylight
26 Oct - 19:16:20 10° WNW 19:25:11 51° SW 19:34:08 10° SSE visible
26 Oct - 21:24:40 10° W 21:28:29 13° WSW 21:32:22 10° SSW visible
27 Oct - 10:35:36 10° S 10:43:28 29° SE 10:51:08 10° ENE daylight
27 Oct - 12:37:57 10° SW 12:47:32 79° SSE 12:56:52 10° ENE daylight
27 Oct - 14:43:33 10° W 14:52:56 65° N 15:02:12 10° ENE daylight
27 Oct - 16:49:23 10° WNW 16:58:46 75° NNE 17:08:06 10° ESE daylight
27 Oct - 18:54:39 10° WNW 19:03:34 54° SW 19:12:34 10° SE visible
27 Oct - 21:02:32 10° W 21:06:55 14° WSW 21:11:21 10° SSW visible
28 Oct - 10:14:10 10° S 10:21:52 28° SE 10:29:22 10° ENE daylight
28 Oct - 12:16:16 10° SW 12:25:52 77° SSE 12:35:13 10° ENE daylight
28 Oct - 14:21:48 10° W 14:31:14 66° N 14:40:30 10° ENE daylight
28 Oct - 16:27:41 10° WNW 16:37:04 74° NNE 16:46:23 10° ESE daylight
28 Oct - 18:32:57 10° WNW 18:41:56 56° SW 18:50:59 10° SE visible
28 Oct - 20:40:29 10° W 20:45:21 16° SW 20:50:17 10° SSW visible
29 Oct - 09:52:46 10° S 10:00:16 26° SE 10:07:35 10° ENE daylight
29 Oct - 11:54:37 10° SW 12:04:12 74° SSE 12:13:33 10° ENE daylight
29 Oct - 14:00:05 10° W 14:09:32 67° N 14:18:48 10° ENE daylight
29 Oct - 16:06:00 10° WNW 16:15:23 72° NNE 16:24:41 10° E daylight
29 Oct - 18:11:17 10° WNW 18:20:19 59° SW 18:29:23 10° SE visible
29 Oct - 20:18:29 10° W 20:23:47 17° SW 20:29:07 10° SSW visible
30 Oct - 09:31:21 10° S 09:38:39 25° SE 09:45:47 10° E daylight
30 Oct - 11:32:57 10° SW 11:42:33 72° SSE 11:51:53 10° ENE daylight
30 Oct - 13:38:20 10° W 13:47:50 67° N 13:57:07 10° ENE daylight
30 Oct - 15:44:17 10° WNW 15:53:42 71° NNE 16:02:59 10° E daylight
30 Oct - 17:49:35 10° WNW 17:58:41 61° SW 18:07:48 10° SE daylight
30 Oct - 19:56:32 10° W 20:02:12 18° SW 20:07:55 10° SSW visible
31 Oct - 09:09:59 10° S 09:17:04 23° SE 09:23:59 10° E daylight
31 Oct - 11:11:19 10° SW 11:20:54 69° SE 11:30:13 10° ENE daylight
31 Oct - 13:16:36 10° W 13:26:08 68° N 13:35:26 10° ENE daylight
31 Oct - 15:22:35 10° WNW 15:32:00 70° NNE 15:41:16 10° E daylight
31 Oct - 17:27:54 10° WNW 17:37:03 64° SW 17:46:11 10° SE daylight
31 Oct - 19:34:38 10° W 19:40:38 19° SW 19:46:41 10° SSW visible
01 Nov - 08:48:38 10° S 08:55:28 22° SE 09:02:08 10° E daylight
01 Nov - 10:49:39 10° SW 10:59:14 67° SE 11:08:33 10° ENE daylight
01 Nov - 12:54:51 10° W 13:04:25 69° NNW 13:13:45 10° ENE daylight
01 Nov - 15:00:53 10° WNW 15:10:18 69° NNE 15:19:35 10° E daylight
01 Nov - 17:06:13 10° WNW 17:15:25 66° SW 17:24:35 10° SE daylight
01 Nov - 19:12:45 10° W 19:19:03 21° SW 19:25:24 10° S visible
02 Nov - 08:27:19 10° S 08:33:52 20° SE 08:40:17 10° E daylight
02 Nov - 10:28:00 10° SW 10:37:35 64° SE 10:46:52 10° ENE daylight
02 Nov - 12:33:07 10° W 12:42:42 70° NNW 12:52:04 10° ENE daylight
02 Nov - 14:39:09 10° WNW 14:48:36 68° N 14:57:52 10° E daylight
02 Nov - 16:44:31 10° WNW 16:53:47 69° SW 17:02:58 10° SE daylight
02 Nov - 18:50:54 10° W 18:57:29 22° SW 19:04:06 10° S visible
03 Nov - 08:06:01 10° SSE 08:12:16 19° SE 08:18:24 10° E daylight
03 Nov - 10:06:23 10° SW 10:15:56 62° SE 10:25:12 10° ENE daylight
03 Nov - 12:11:22 10° W 12:21:01 71° NNW 12:30:23 10° ENE daylight
03 Nov - 14:17:26 10° WNW 14:26:54 67° N 14:36:09 10° E daylight
03 Nov - 16:22:50 10° WNW 16:32:08 71° SSW 16:41:21 10° SE daylight
03 Nov - 18:29:04 10° W 18:35:54 24° SW 18:42:45 10° S visible
